DateTimeUTC,F1_A11,F1_S11,BsB_S11,BsG_S11,BsR_S11,BbsB_S11,BbsG_S11,BbsR_S11,BaB_A11,BaG_A11,BaR_A11,Tu_S11,T_S11,Uu_S11,U_S11,P_S11,T1_A11
2021-10-14T15:00:00Z,00000200,20000000,,,,,,,0000.15,-000.19,-000.08,17.6,24.3,02.9,01.9,0664.8,31.0
2021-10-14T15:01:00Z,00000200,20000000,,,,,,,0000.09,0000.20,0000.53,17.6,24.4,02.9,01.9,0664.8,31.0
2021-10-14T15:02:00Z,00000200,20000000,,,,,,,-000.20,-000.54,-000.25,17.7,24.4,02.9,01.9,0664.8,31.0
2021-10-14T15:03:00Z,00000200,60000000,,,,,,,-000.19,0000.19,-000.40,17.7,24.4,02.9,01.9,0664.8,31.0
2021-10-14T15:04:00Z,00000200,40000000,0000.40,0000.22,0000.21,0000.15,0000.15,0000.05,0000.10,-000.03,-000.07,18.0,24.3,02.8,01.9,0665.7,31.0
2021-10-14T15:05:00Z,00000200,00000000,0000.34,0000.29,0000.11,0000.49,0000.15,0000.12,-000.02,-000.20,0000.00,18.0,24.3,02.8,01.9,0665.9,31.0
2021-10-14T15:06:00Z,00000200,00000000,0000.85,0000.51,0000.16,-000.28,0000.21,0000.37,0000.12,0000.03,-000.09,17.9,24.3,02.8,01.9,0665.8,31.0
2021-10-14T15:07:00Z,00000200,00000000,0000.31,0000.37,-000.04,-000.75,0000.14,0000.25,-000.23,0000.16,-000.10,17.9,24.2,02.8,01.9,0665.8,31.0
2021-10-14T15:08:00Z,00000200,00000000,0000.75,0000.66,0000.27,-000.60,-000.04,0000.33,0000.11,-000.10,-000.15,17.8,24.2,02.8,01.9,0665.7,31.0
2021-10-14T15:09:00Z,00000200,00000000,0000.33,0000.40,0000.07,-000.22,0000.11,0000.26,-000.15,-000.19,0000.05,17.8,24.2,02.7,01.9,0665.7,31.0
2021-10-14T15:10:00Z,00000200,00000000,-000.09,0000.29,-000.28,0000.08,-000.04,0000.18,-000.07,0000.18,0000.01,17.7,24.2,02.9,01.9,0665.8,31.0
2021-10-14T15:11:00Z,00000200,00000000,0000.83,0000.06,0000.35,-000.11,0000.08,0000.35,-000.38,-000.17,-000.21,17.7,24.1,02.7,01.8,0665.7,30.9
2021-10-14T15:12:00Z,00000200,00000000,0000.47,0000.27,0000.01,-000.48,0000.01,0000.17,0000.20,-000.19,0000.29,17.7,24.1,02.8,01.9,0665.8,30.9
2021-10-14T15:13:00Z,00000200,00000000,0000.62,0000.22,0000.09,0000.20,-000.06,0000.27,0000.14,0000.47,0000.07,17.7,24.1,02.8,01.9,0665.9,30.9
2021-10-14T15:14:00Z,00000200,00000000,0000.91,0000.46,-000.01,-000.17,-000.07,0000.23,0000.47,-000.16,0000.49,17.8,24.1,02.8,01.9,0665.9,31.0
2021-10-14T15:15:00Z,00000200,00000000,0000.77,0000.47,-000.29,-000.26,0000.19,0000.27,-000.30,0000.12,-000.13,17.9,24.2,02.6,01.8,0665.9,31.0
2021-10-14T15:16:00Z,00000200,00000000,0000.20,0000.07,0000.09,0000.40,-000.12,0000.08,0000.16,0000.40,0000.12,18.0,24.2,02.6,01.8,0666.0,31.0
2021-10-14T15:17:00Z,00000200,00000000,0000.15,-000.01,0000.01,-000.40,0000.06,0000.15,-000.35,-000.23,-000.35,18.0,24.2,02.7,01.8,0665.9,31.0
2021-10-14T15:18:00Z,00000200,00000000,0000.43,0000.14,0000.34,0000.21,0000.22,0000.19,0000.41,-000.24,-000.04,18.1,24.3,02.6,01.8,0665.8,31.0
2021-10-14T15:19:00Z,00000200,00000000,0001.33,0000.22,-000.08,0000.04,-000.01,0000.17,-000.17,-000.41,-000.18,18.1,24.3,02.6,01.8,0666.0,31.0
2021-10-14T15:20:00Z,00000200,00000000,0000.89,-000.05,-000.09,-000.32,-000.17,0000.01,-000.02,0000.39,-000.24,18.1,24.3,02.7,01.8,0666.0,31.0
2021-10-14T15:21:00Z,00000200,00000000,0000.26,0000.17,-000.27,-000.68,0000.17,0000.06,-000.21,-000.11,0000.01,18.0,24.3,02.6,01.8,0666.0,31.0
2021-10-14T15:22:00Z,00000200,00000000,0000.49,0000.33,-000.15,0000.53,-000.07,-000.00,-000.58,-000.41,-000.22,18.0,24.3,02.6,01.8,0666.0,31.0
2021-10-14T15:23:00Z,00000200,00000000,0000.46,0000.44,-000.03,0000.08,0000.05,0000.12,0000.16,0000.03,-000.04,17.9,24.2,02.6,01.8,0666.0,31.0
2021-10-14T15:24:00Z,00000200,00000000,0000.51,0000.38,-000.00,-001.06,0000.17,-000.01,-000.13,-000.20,0000.31,17.9,24.2,02.6,01.7,0666.0,31.0
2021-10-14T15:25:00Z,00000200,00000000,0000.69,0000.42,0000.02,-000.06,-000.45,0000.39,0000.26,0000.40,-000.17,17.8,24.2,02.5,01.7,0666.0,31.0
2021-10-14T15:26:00Z,00000200,00000000,0000.43,0000.19,0000.10,-000.43,-000.10,0000.10,-000.12,-000.44,0000.22,17.8,24.1,02.6,01.7,0666.1,31.0
2021-10-14T15:27:00Z,00000200,00000000,0000.32,0000.07,0000.18,-000.39,-000.04,0000.51,0000.21,0000.13,0000.14,17.8,24.1,02.6,01.7,0666.1,31.0
2021-10-14T15:28:00Z,00000200,00000000,0001.03,0000.36,0000.30,-000.22,0000.06,0000.33,-000.03,0000.45,-000.35,17.8,24.1,02.6,01.8,0666.1,31.0
2021-10-14T15:29:00Z,00000200,00000000,0000.38,0000.37,0000.45,-000.44,0000.30,0000.41,0000.58,0000.11,0000.57,17.9,24.1,02.6,01.8,0666.1,31.0
2021-10-14T15:30:00Z,00000200,00000000,0000.19,0000.31,0000.16,0000.29,0000.28,0000.17,-000.19,0000.17,0000.15,17.9,24.2,02.5,01.7,0666.2,31.0
2021-10-14T15:31:00Z,00000200,00000000,0000.42,0000.12,-000.04,-000.17,0000.02,0000.41,-000.05,-000.08,-000.19,18.0,24.2,02.6,01.8,0666.2,31.0
2021-10-14T15:32:00Z,00000200,00000000,0000.59,0000.52,0000.04,-000.19,-000.22,0000.50,0000.33,0000.07,0000.08,18.1,24.3,02.4,01.7,0666.2,31.0
2021-10-14T15:33:00Z,00000200,00000000,-000.16,0000.48,0000.07,0000.22,-000.11,0000.50,-000.35,-000.31,-000.08,18.1,24.3,02.3,01.6,0666.2,31.0
2021-10-14T15:34:00Z,00000200,00000000,0000.49,0000.33,-000.11,-000.50,0000.39,0000.07,-000.44,-000.32,-000.37,18.1,24.3,02.4,01.7,0666.2,31.0
2021-10-14T15:35:00Z,00000200,00000000,0000.56,-000.03,-000.25,-000.13,0000.29,0000.05,0000.02,0000.20,-000.05,18.1,24.3,02.4,01.6,0666.2,31.0
2021-10-14T15:36:00Z,00000200,00000000,0000.96,0000.27,-000.21,0000.09,-000.15,0000.01,0000.05,-000.13,-000.28,18.0,24.3,02.4,01.7,0666.2,31.0
2021-10-14T15:37:00Z,00000200,00000000,0000.80,0000.26,0000.27,0000.14,0000.15,0000.46,0000.11,-000.19,-000.04,17.9,24.2,02.4,01.6,0666.1,31.0
2021-10-14T15:38:00Z,00000200,00000000,0001.04,0000.30,0000.19,0000.32,0000.08,0000.27,-000.37,0000.15,0000.30,17.9,24.2,02.3,01.6,0666.2,31.0
2021-10-14T15:39:00Z,00000200,00000000,0000.67,0000.10,0000.31,0000.27,0000.12,0000.23,0000.20,-000.01,-000.11,17.8,24.2,02.4,01.6,0666.2,30.9
2021-10-14T15:40:00Z,00000200,00000000,0001.17,0000.46,0000.32,-000.52,0000.05,0000.33,-000.22,-000.41,0000.04,17.8,24.1,02.4,01.6,0666.2,31.0
2021-10-14T15:41:00Z,00000200,00000000,0000.78,0000.23,0000.14,0000.16,0000.32,0000.31,0000.20,0000.23,0000.08,17.7,24.1,02.4,01.6,0666.3,30.9
2021-10-14T15:42:00Z,00000200,00000000,0001.14,-000.03,0000.02,0000.75,0000.17,0000.51,0000.33,0000.05,-000.14,17.7,24.1,02.4,01.6,0666.3,30.9
2021-10-14T15:43:00Z,00000200,00000000,0000.33,-000.00,0000.04,-000.30,0000.20,0000.04,-000.42,-000.03,0000.41,17.8,24.1,02.4,01.6,0666.3,31.0
2021-10-14T15:44:00Z,00000200,00000000,0000.37,0000.56,0000.27,0000.01,0000.11,-000.07,0000.31,0000.47,0000.02,17.8,24.1,02.4,01.6,0666.3,31.0
2021-10-14T15:45:00Z,00000200,00000000,-000.17,0000.43,0000.07,-000.56,0000.25,0000.59,0000.23,0000.19,-000.03,17.9,24.2,02.4,01.6,0666.3,31.0
2021-10-14T15:46:00Z,00000200,00000000,0000.36,0000.22,0000.39,-000.11,-000.10,0000.21,-000.01,-000.20,0000.31,18.0,24.2,02.3,01.6,0666.3,31.0
2021-10-14T15:47:00Z,00000200,00000000,0000.38,0000.21,-000.04,-000.82,-000.34,0000.16,-000.13,0000.15,-000.33,18.1,24.3,02.4,01.6,0666.4,31.0
2021-10-14T15:48:00Z,00000200,00000000,0000.93,0000.30,0000.26,-000.25,0000.06,-000.17,0000.29,-000.31,0000.13,18.1,24.3,02.3,01.6,0666.4,31.0
2021-10-14T15:49:00Z,00000200,00000000,0000.06,0000.27,0000.06,0000.10,0000.04,0000.32,-000.47,0000.07,0000.00,18.1,24.3,02.3,01.6,0666.5,31.0
2021-10-14T15:50:00Z,00000200,00000000,0000.24,0000.51,0000.33,-000.87,0000.27,0000.15,0000.18,-000.06,-000.18,18.0,24.3,02.3,01.6,0666.4,31.0
2021-10-14T15:51:00Z,00000200,01000000,-000.11,0000.56,0000.25,-000.50,-000.01,0000.24,-000.52,-000.10,0000.14,18.0,24.3,02.3,01.5,0666.4,31.0
2021-10-14T15:52:00Z,00000200,00000000,0000.08,0000.32,-000.00,0000.14,-000.33,0000.14,0000.11,-000.49,-000.36,17.9,24.2,02.2,01.5,0666.4,31.0
2021-10-14T15:53:00Z,00000200,00000000,0000.35,0000.27,-000.03,0000.03,0000.04,0000.35,-000.09,-000.12,-000.15,17.9,24.2,02.3,01.6,0666.4,31.0
2021-10-14T15:54:00Z,00000200,00000000,0001.33,0000.05,-000.10,-000.21,0000.26,0000.20,-000.11,0000.18,0000.06,17.8,24.2,02.4,01.6,0666.5,31.0
2021-10-14T15:55:00Z,00000200,00000000,0000.81,0000.30,0000.03,0000.10,0000.25,0000.25,-000.01,-000.06,-000.29,17.8,24.2,02.3,01.5,0666.5,30.9
2021-10-14T15:56:00Z,00000200,00000000,0000.51,0000.37,0000.33,0000.09,0000.03,0000.39,-000.03,-000.02,0000.12,17.8,24.1,02.3,01.5,0666.5,30.9
2021-10-14T15:57:00Z,00000200,40000000,,,,,,,0000.56,0000.53,0000.43,17.8,24.1,02.2,01.5,0666.5,31.0
2021-10-14T15:58:00Z,00000200,60000000,,,,,,,-000.05,-000.11,0000.17,17.5,24.2,02.3,01.5,0665.6,31.0
2021-10-14T15:59:00Z,00000200,20000000,,,,,,,-000.27,0000.19,-000.34,17.5,24.3,02.2,01.5,0665.6,31.0
